Regional Weather Roundup
Issued by NWS

Home | Current Version | Previous Version | Text Only | Print | Product List | Glossary Off
Versions: 1 2 3 4 5 6 7 8 9 10 11 12 13 14 15 16 17 18 19 20 21 22 23 24 25 26 27 28 29 30 31 32 33 34 35 36 37 38 39 40 41 42 43 44 45 46 47 48 49 50

000
ASUS45 KBOI 300910
RWRID
WEATHER ROUNDUP FOR IDAHO
NATIONAL WEATHER SERVICE BOISE ID
200 AM MST FRI JAN 30 2015

NOTE: "FAIR" INDICATES FEW OR NO CLOUDS BELOW 12000 FEET
WITH NO SIGNIFICANT WEATHER AND/OR OBSTRUCTIONS TO VISIBILITY

IDZ012-014-301000-
SOUTHWEST IDAHO


CITY           SKY/WX    TMP DP  RH WIND       PRES   REMARKS
BOISE          PTCLDY    32  29  88 S3        30.30F
CALDWELL       CLOUDY    37  30  75 W8        30.33F WCI  31
MOUNTAIN HOME  CLOUDY    36  33  89 NW5       30.28F WCI  32
$$

IDZ016-017-301000-
SOUTHCENTRAL IDAHO


CITY           SKY/WX    TMP DP  RH WIND       PRES   REMARKS
BURLEY         MOCLDY    32  28  85 N6        30.24F WCI  26
JEROME         CLOUDY    32  28  85 E5        30.27S WCI  27
TWIN FALLS     CLOUDY    35  31  85 S6        30.26F WCI  30
$$

IDZ019>023-301000-
SOUTHEAST IDAHO


CITY           SKY/WX    TMP DP  RH WIND       PRES   REMARKS
IDAHO FALLS    MOCLDY    29  26  89 N9        30.26F WCI  20
POCATELLO      CLEAR     29  29 100 CALM      30.25F
REXBURG        MOCLDY    25  22  88 NE5       30.26F WCI  19
$$

IDZ006-010-011-018-031-032-301000-
CENTRAL IDAHO MOUNTAINS


CITY           SKY/WX    TMP DP  RH WIND       PRES   REMARKS
MCCALL         PTCLDY    15  12  88 CALM      30.25F
HAILEY         PTCLDY    27  21  80 NW9       30.27F WCI  17
STANLEY          N/A      8   4  83 CALM      30.30F
SALMON         CLOUDY    21  19  93 CALM      30.38S
CHALLIS        CLOUDY    28  23  81 W3        30.34S
$$

IDZ002-004-006-007-026-301000-
NORTHERN IDAHO


CITY           SKY/WX    TMP DP  RH WIND       PRES   REMARKS
LEWISTON       CLOUDY    38  35  89 NE3       30.38F
LOWELL           N/A     32  30  92 NW3       30.42F
COEUR D`ALENE  MOCLDY    30  28  93 NE9       30.36F WCI  22
MULLAN PASS    CLEAR     30  21  69 NW3       30.26S
$$


USA.gov is the U.S. government's official web portal to all federal, state and local government web resources and services.